Year,Month,Day,Hour,Minute,Value (Times are PST for temperature in C)
2019,06,27,00,00,16.50
2019,06,27,00,01,16.50
2019,06,27,00,02,16.50
2019,06,27,00,03,16.50
2019,06,27,00,04,16.50
2019,06,27,00,05,16.60
2019,06,27,00,06,16.60
2019,06,27,00,07,16.60
2019,06,27,00,08,16.70
2019,06,27,00,09,16.70
2019,06,27,00,10,16.80
2019,06,27,00,11,16.80
2019,06,27,00,12,16.80
2019,06,27,00,13,16.80
2019,06,27,00,14,16.90
2019,06,27,00,15,16.90
2019,06,27,00,16,16.90
2019,06,27,00,17,16.90
2019,06,27,00,18,16.90
2019,06,27,00,19,16.90
2019,06,27,00,20,17.00
2019,06,27,00,21,17.00
2019,06,27,00,22,16.90
2019,06,27,00,23,16.90
2019,06,27,00,24,16.90
2019,06,27,00,25,16.90
2019,06,27,00,26,16.90
2019,06,27,00,27,16.90
2019,06,27,00,28,16.80
2019,06,27,00,29,16.80
2019,06,27,00,30,16.80
2019,06,27,00,31,16.80
2019,06,27,00,32,16.80
2019,06,27,00,33,16.80
2019,06,27,00,34,16.80
2019,06,27,00,35,16.90
2019,06,27,00,36,16.90
2019,06,27,00,37,16.90
2019,06,27,00,38,16.90
2019,06,27,00,39,16.90
2019,06,27,00,40,16.90
2019,06,27,00,41,16.90
2019,06,27,00,42,16.90
2019,06,27,00,43,16.90
2019,06,27,00,44,16.90
2019,06,27,00,45,16.90
2019,06,27,00,46,17.00
2019,06,27,00,47,17.00
2019,06,27,00,48,17.00
2019,06,27,00,49,17.00
2019,06,27,00,50,17.00
2019,06,27,00,51,17.00
2019,06,27,00,52,17.10
2019,06,27,00,53,17.10
2019,06,27,00,54,17.10
2019,06,27,00,55,17.10
2019,06,27,00,56,17.10
2019,06,27,00,57,17.10
2019,06,27,00,58,17.10
2019,06,27,00,59,17.10
2019,06,27,01,00,17.10
2019,06,27,01,01,17.10
2019,06,27,01,02,17.20
2019,06,27,01,03,17.20
2019,06,27,01,04,17.20
2019,06,27,01,05,17.20
2019,06,27,01,06,17.20
2019,06,27,01,07,17.20
2019,06,27,01,08,17.20
2019,06,27,01,09,17.20
2019,06,27,01,10,17.20
2019,06,27,01,11,17.20
2019,06,27,01,12,17.20
2019,06,27,01,13,17.20
2019,06,27,01,14,17.20
2019,06,27,01,15,17.20
2019,06,27,01,16,17.20
2019,06,27,01,17,17.10
2019,06,27,01,18,16.90
2019,06,27,01,19,16.80
2019,06,27,01,20,16.70
2019,06,27,01,21,16.60
2019,06,27,01,22,16.50
2019,06,27,01,23,16.40
2019,06,27,01,24,16.30
2019,06,27,01,25,16.30
2019,06,27,01,26,16.20
2019,06,27,01,27,16.20
2019,06,27,01,28,16.20
2019,06,27,01,29,16.20
2019,06,27,01,30,16.10
2019,06,27,01,31,16.10
2019,06,27,01,32,16.10
2019,06,27,01,33,16.10
2019,06,27,01,34,16.00
2019,06,27,01,35,15.90
2019,06,27,01,36,15.90
2019,06,27,01,37,15.80
2019,06,27,01,38,15.80
2019,06,27,01,39,15.80
2019,06,27,01,40,15.70
2019,06,27,01,41,15.60
2019,06,27,01,42,15.60
2019,06,27,01,43,15.60
2019,06,27,01,44,15.50
2019,06,27,01,45,15.40
2019,06,27,01,46,15.40
2019,06,27,01,47,15.40
2019,06,27,01,48,15.40
2019,06,27,01,49,15.40
2019,06,27,01,50,15.40
2019,06,27,01,51,15.40
2019,06,27,01,52,15.40
2019,06,27,01,53,15.50
2019,06,27,01,54,15.50
2019,06,27,01,55,15.60
2019,06,27,01,56,15.60
2019,06,27,01,57,15.60
2019,06,27,01,58,15.60
2019,06,27,01,59,15.60
2019,06,27,02,00,15.60
2019,06,27,02,01,15.70
2019,06,27,02,02,15.70
2019,06,27,02,03,15.70
2019,06,27,02,04,15.70
2019,06,27,02,05,15.70
2019,06,27,02,06,15.70
2019,06,27,02,07,15.60
2019,06,27,02,08,15.60
2019,06,27,02,09,15.50
2019,06,27,02,10,15.40
2019,06,27,02,11,15.40
2019,06,27,02,12,15.40
2019,06,27,02,13,15.30
2019,06,27,02,14,15.30
2019,06,27,02,15,15.20
2019,06,27,02,16,15.20
2019,06,27,02,17,15.10
2019,06,27,02,18,15.00
2019,06,27,02,19,15.00
2019,06,27,02,20,15.00
2019,06,27,02,21,15.00
2019,06,27,02,22,15.00
2019,06,27,02,23,15.00
2019,06,27,02,24,15.00
2019,06,27,02,25,15.00
2019,06,27,02,26,15.00
2019,06,27,02,27,15.00
2019,06,27,02,28,15.00
2019,06,27,02,29,15.00
2019,06,27,02,30,15.00
2019,06,27,02,31,15.00
2019,06,27,02,32,14.90
2019,06,27,02,33,14.90
2019,06,27,02,34,14.80
2019,06,27,02,35,14.80
2019,06,27,02,36,14.90
2019,06,27,02,37,14.90
2019,06,27,02,38,14.90
2019,06,27,02,39,14.90
2019,06,27,02,40,15.00
2019,06,27,02,41,15.00
2019,06,27,02,42,15.00
2019,06,27,02,43,15.00
2019,06,27,02,44,15.00
2019,06,27,02,45,15.00
2019,06,27,02,46,15.00
2019,06,27,02,47,15.00
2019,06,27,02,48,15.00
2019,06,27,02,49,15.00
2019,06,27,02,50,15.10
2019,06,27,02,51,15.10
2019,06,27,02,52,15.20
2019,06,27,02,53,15.20
2019,06,27,02,54,15.30
2019,06,27,02,55,15.30
2019,06,27,02,56,15.30
2019,06,27,02,57,15.30
2019,06,27,02,58,15.30
2019,06,27,02,59,15.20
2019,06,27,03,00,15.20
2019,06,27,03,01,15.20
2019,06,27,03,02,15.00
2019,06,27,03,03,15.00
2019,06,27,03,04,15.00
2019,06,27,03,05,15.00
2019,06,27,03,06,15.00
2019,06,27,03,07,15.00
2019,06,27,03,08,15.00
2019,06,27,03,09,15.00
2019,06,27,03,10,15.00
2019,06,27,03,11,15.00
2019,06,27,03,12,15.00
2019,06,27,03,13,15.00
2019,06,27,03,14,15.00
2019,06,27,03,15,15.00
2019,06,27,03,16,15.00
2019,06,27,03,17,15.00
2019,06,27,03,18,15.00
2019,06,27,03,19,15.10
2019,06,27,03,20,15.10
2019,06,27,03,21,15.10
2019,06,27,03,22,15.10
2019,06,27,03,23,15.10
2019,06,27,03,24,15.10
2019,06,27,03,25,15.10
2019,06,27,03,26,15.00
2019,06,27,03,27,15.00
2019,06,27,03,28,15.00
2019,06,27,03,29,15.00
2019,06,27,03,30,15.00
2019,06,27,03,31,15.00
2019,06,27,03,32,15.00
2019,06,27,03,33,15.00
2019,06,27,03,34,15.00
2019,06,27,03,35,15.00
2019,06,27,03,36,15.00
2019,06,27,03,37,15.00
2019,06,27,03,38,15.00
2019,06,27,03,39,15.00
2019,06,27,03,40,15.00
2019,06,27,03,41,15.00
2019,06,27,03,42,15.00
2019,06,27,03,43,14.90
2019,06,27,03,44,14.90
2019,06,27,03,45,14.90
2019,06,27,03,46,14.90
2019,06,27,03,47,14.90
2019,06,27,03,48,14.90
2019,06,27,03,49,14.90
2019,06,27,03,50,14.90
2019,06,27,03,51,14.90
2019,06,27,03,52,14.90
2019,06,27,03,53,14.90
2019,06,27,03,54,14.90
2019,06,27,03,55,14.90
2019,06,27,03,56,15.00
2019,06,27,03,57,15.00
2019,06,27,03,58,15.00
2019,06,27,03,59,15.00
2019,06,27,04,00,15.00
2019,06,27,04,01,15.00
2019,06,27,04,02,15.00
2019,06,27,04,03,15.00
2019,06,27,04,04,15.00
2019,06,27,04,05,15.00
2019,06,27,04,06,15.00
2019,06,27,04,07,15.00
2019,06,27,04,08,15.00
2019,06,27,04,09,15.00
2019,06,27,04,10,14.90
2019,06,27,04,11,14.90
2019,06,27,04,12,14.90
2019,06,27,04,13,14.90
2019,06,27,04,14,14.80
2019,06,27,04,15,14.80
2019,06,27,04,16,14.80
2019,06,27,04,17,14.80
2019,06,27,04,18,14.80
2019,06,27,04,19,14.80
2019,06,27,04,20,14.80
2019,06,27,04,21,14.80
2019,06,27,04,22,14.90
2019,06,27,04,23,14.90
2019,06,27,04,24,15.00
2019,06,27,04,25,15.00
2019,06,27,04,26,15.00
2019,06,27,04,27,15.00
2019,06,27,04,28,14.90
2019,06,27,04,29,14.90
2019,06,27,04,30,14.80
2019,06,27,04,31,14.80
2019,06,27,04,32,14.70
2019,06,27,04,33,14.60
2019,06,27,04,34,14.60
2019,06,27,04,35,14.60
2019,06,27,04,36,14.50
2019,06,27,04,37,14.50
2019,06,27,04,38,14.50
2019,06,27,04,39,14.40
2019,06,27,04,40,14.40
2019,06,27,04,41,14.40
2019,06,27,04,42,14.40
2019,06,27,04,43,14.40
2019,06,27,04,44,14.40
2019,06,27,04,45,14.40
2019,06,27,04,46,14.40
2019,06,27,04,47,14.40
2019,06,27,04,48,14.40
2019,06,27,04,49,14.50
2019,06,27,04,50,14.50
2019,06,27,04,51,14.50
2019,06,27,04,52,14.50
2019,06,27,04,53,14.60
2019,06,27,04,54,14.60
2019,06,27,04,55,14.60
2019,06,27,04,56,14.60
2019,06,27,04,57,14.60
2019,06,27,04,58,14.70
2019,06,27,04,59,14.70
2019,06,27,05,00,14.70
2019,06,27,05,01,14.70
2019,06,27,05,02,14.70
2019,06,27,05,03,14.70
2019,06,27,05,04,14.80
2019,06,27,05,05,14.80
2019,06,27,05,06,14.80
2019,06,27,05,07,14.80
2019,06,27,05,08,14.80
2019,06,27,05,09,14.80
2019,06,27,05,10,14.80
2019,06,27,05,11,14.80
2019,06,27,05,12,14.80
2019,06,27,05,13,14.80
2019,06,27,05,14,14.80
2019,06,27,05,15,14.80
2019,06,27,05,16,14.80
2019,06,27,05,17,14.80
2019,06,27,05,18,14.90
2019,06,27,05,19,14.90
2019,06,27,05,20,15.00
2019,06,27,05,21,15.00
2019,06,27,05,22,15.00
2019,06,27,05,23,15.00
2019,06,27,05,24,15.00
2019,06,27,05,25,15.00
2019,06,27,05,26,15.00
2019,06,27,05,27,14.90
2019,06,27,05,28,14.80
2019,06,27,05,29,14.80
2019,06,27,05,30,14.80
2019,06,27,05,31,14.70
2019,06,27,05,32,14.70
2019,06,27,05,33,14.70
2019,06,27,05,34,14.70
2019,06,27,05,35,14.60
2019,06,27,05,36,14.60
2019,06,27,05,37,14.60
2019,06,27,05,38,14.50
2019,06,27,05,39,14.50
2019,06,27,05,40,14.40
2019,06,27,05,41,14.40
2019,06,27,05,42,14.40
2019,06,27,05,43,14.40
2019,06,27,05,44,14.40
2019,06,27,05,45,14.30
2019,06,27,05,46,14.30
2019,06,27,05,47,14.30
2019,06,27,05,48,14.30
2019,06,27,05,49,14.30
2019,06,27,05,50,14.30
2019,06,27,05,51,14.40
2019,06,27,05,52,14.40
2019,06,27,05,53,14.40
2019,06,27,05,54,14.40
2019,06,27,05,55,14.40
2019,06,27,05,56,14.40
2019,06,27,05,57,14.40
2019,06,27,05,58,14.40
2019,06,27,05,59,14.40
2019,06,27,06,00,14.40
2019,06,27,06,01,14.40
2019,06,27,06,02,14.40
2019,06,27,06,03,14.40
2019,06,27,06,04,14.40
2019,06,27,06,05,14.40
2019,06,27,06,06,14.40
2019,06,27,06,07,14.40
2019,06,27,06,08,14.40
2019,06,27,06,09,14.40
2019,06,27,06,10,14.40
2019,06,27,06,11,14.40
2019,06,27,06,12,14.40
2019,06,27,06,13,14.40
2019,06,27,06,14,14.40
2019,06,27,06,15,14.40
2019,06,27,06,16,14.50
2019,06,27,06,17,14.50
2019,06,27,06,18,14.50
2019,06,27,06,19,14.50
2019,06,27,06,20,14.60
2019,06,27,06,21,14.60
2019,06,27,06,22,14.60
2019,06,27,06,23,14.60
2019,06,27,06,24,14.60
2019,06,27,06,25,14.60
2019,06,27,06,26,14.70
2019,06,27,06,27,14.70
2019,06,27,06,28,14.70
2019,06,27,06,29,14.80
2019,06,27,06,30,14.80
2019,06,27,06,31,14.90
2019,06,27,06,32,14.90
2019,06,27,06,33,15.00
2019,06,27,06,34,15.00
2019,06,27,06,35,15.00
2019,06,27,06,36,15.00
2019,06,27,06,37,15.00
2019,06,27,06,38,15.00
2019,06,27,06,39,15.00
2019,06,27,06,40,15.10
2019,06,27,06,41,15.10
2019,06,27,06,42,15.30
2019,06,27,06,43,15.30
2019,06,27,06,44,15.40
2019,06,27,06,45,15.40
2019,06,27,06,46,15.40
2019,06,27,06,47,15.40
2019,06,27,06,48,15.30
2019,06,27,06,49,15.30
2019,06,27,06,50,15.30
2019,06,27,06,51,15.30
2019,06,27,06,52,15.30
2019,06,27,06,53,15.30
2019,06,27,06,54,15.20
2019,06,27,06,55,15.20
2019,06,27,06,56,15.20
2019,06,27,06,57,15.20
2019,06,27,06,58,15.20
2019,06,27,06,59,15.20
2019,06,27,07,00,15.20
2019,06,27,07,01,15.20
2019,06,27,07,02,15.20
2019,06,27,07,03,15.20
2019,06,27,07,04,15.20
2019,06,27,07,05,15.10
2019,06,27,07,06,15.10
2019,06,27,07,07,15.10
2019,06,27,07,08,15.10
2019,06,27,07,09,15.10
2019,06,27,07,10,15.10
2019,06,27,07,11,15.10
2019,06,27,07,12,15.10
2019,06,27,07,13,15.10
2019,06,27,07,14,15.10
2019,06,27,07,15,15.10
2019,06,27,07,16,15.10
2019,06,27,07,17,15.10
2019,06,27,07,18,15.10
2019,06,27,07,19,15.10
2019,06,27,07,20,15.10
2019,06,27,07,21,15.10
2019,06,27,07,22,15.10
2019,06,27,07,23,15.10
2019,06,27,07,24,15.10
2019,06,27,07,25,15.10
2019,06,27,07,26,15.10
2019,06,27,07,27,15.10
2019,06,27,13,24,16.20
2019,06,27,13,25,16.30
2019,06,27,13,26,16.30
2019,06,27,13,27,16.20
2019,06,27,13,28,16.20
2019,06,27,13,29,16.20
2019,06,27,13,30,16.20
2019,06,27,13,31,16.20
2019,06,27,13,32,16.20
2019,06,27,13,33,16.30
2019,06,27,13,34,16.20
2019,06,27,13,35,16.20
2019,06,27,13,36,16.20
2019,06,27,13,37,16.20
2019,06,27,13,38,16.20
2019,06,27,13,39,16.20
2019,06,27,13,40,16.20
2019,06,27,13,41,16.20
2019,06,27,13,42,16.20
2019,06,27,13,43,16.10
2019,06,27,13,44,16.20
2019,06,27,13,45,16.20
2019,06,27,13,46,16.20
2019,06,27,13,47,16.20
2019,06,27,13,48,16.10
2019,06,27,13,49,16.10
2019,06,27,13,50,16.10
2019,06,27,13,51,16.20
2019,06,27,13,52,16.20
2019,06,27,13,53,16.30
2019,06,27,13,54,16.30
2019,06,27,13,55,16.30
2019,06,27,13,56,16.40
2019,06,27,13,57,16.50
2019,06,27,13,58,16.50
2019,06,27,13,59,16.50
2019,06,27,14,00,16.40
2019,06,27,14,01,16.40
2019,06,27,14,02,16.40
2019,06,27,14,03,16.40
2019,06,27,14,04,16.40
2019,06,27,14,05,16.40
2019,06,27,14,06,16.40
2019,06,27,14,07,16.40
2019,06,27,14,08,16.30
2019,06,27,14,09,16.30
2019,06,27,14,10,16.40
2019,06,27,14,11,16.40
2019,06,27,14,12,16.40
2019,06,27,14,13,16.40
2019,06,27,14,14,16.40
2019,06,27,14,15,16.40
2019,06,27,14,16,16.50
2019,06,27,14,17,16.50
2019,06,27,14,18,16.60
2019,06,27,14,19,16.60
2019,06,27,14,20,16.70
2019,06,27,14,21,16.70
2019,06,27,14,22,16.70
2019,06,27,14,23,16.70
2019,06,27,14,24,16.70
2019,06,27,14,25,16.80
2019,06,27,14,26,16.80
2019,06,27,14,27,16.80
2019,06,27,14,28,16.80
2019,06,27,14,29,16.80
2019,06,27,14,30,16.90
2019,06,27,14,31,16.90
2019,06,27,14,32,16.90
2019,06,27,14,33,16.90
2019,06,27,14,34,16.90
2019,06,27,14,35,17.00
2019,06,27,14,36,17.10
2019,06,27,14,37,17.10
2019,06,27,14,38,17.10
2019,06,27,14,39,17.10
2019,06,27,14,40,17.10
2019,06,27,14,41,17.10
2019,06,27,14,42,17.10
2019,06,27,14,43,17.10
2019,06,27,14,44,17.20
2019,06,27,14,45,17.20
2019,06,27,14,46,17.20
2019,06,27,14,47,17.30
2019,06,27,14,48,17.20
2019,06,27,14,49,17.20
2019,06,27,14,50,17.20
2019,06,27,14,51,17.20
2019,06,27,14,52,17.30
2019,06,27,14,53,17.30
2019,06,27,14,54,17.30
2019,06,27,14,55,17.30
2019,06,27,14,56,17.30
2019,06,27,14,57,17.30
2019,06,27,14,58,17.30
2019,06,27,14,59,17.20
2019,06,27,15,00,17.20
2019,06,27,15,01,17.20
2019,06,27,15,02,17.30
2019,06,27,15,03,17.20
2019,06,27,15,04,17.20
2019,06,27,15,05,17.20
2019,06,27,15,06,17.10
2019,06,27,15,07,17.10
2019,06,27,15,08,17.10
2019,06,27,15,09,17.10
2019,06,27,15,10,17.10
2019,06,27,15,11,17.10
2019,06,27,15,12,17.00
2019,06,27,15,13,17.00
2019,06,27,15,14,16.90
2019,06,27,15,15,16.90
2019,06,27,15,16,16.80
2019,06,27,15,17,16.70
2019,06,27,15,18,16.70
2019,06,27,15,19,16.60
2019,06,27,15,20,16.60
2019,06,27,15,21,16.60
2019,06,27,15,22,16.50
2019,06,27,15,23,16.50
2019,06,27,15,24,16.40
2019,06,27,15,25,16.40
2019,06,27,15,26,16.40
2019,06,27,15,27,16.30
2019,06,27,15,28,16.30
2019,06,27,15,29,16.30
2019,06,27,15,30,16.30
2019,06,27,15,31,16.20
2019,06,27,15,32,16.20
2019,06,27,15,33,16.20
2019,06,27,15,34,16.20
2019,06,27,15,35,16.20
2019,06,27,15,36,16.20
2019,06,27,15,37,16.20
2019,06,27,15,38,16.10
2019,06,27,15,39,16.10
2019,06,27,15,40,16.20
2019,06,27,15,41,16.20
2019,06,27,15,42,16.20
2019,06,27,15,43,16.20
2019,06,27,15,44,16.30
2019,06,27,15,45,16.40
2019,06,27,15,46,16.40
2019,06,27,15,47,16.50
2019,06,27,15,48,16.60
2019,06,27,15,49,16.60
2019,06,27,15,50,16.60
2019,06,27,15,51,16.60
2019,06,27,15,52,16.60
2019,06,27,15,53,16.60
2019,06,27,15,54,16.60
2019,06,27,15,55,16.70
2019,06,27,15,56,16.70
2019,06,27,15,57,16.80
2019,06,27,15,58,16.80
2019,06,27,15,59,16.90
2019,06,27,16,00,16.90
2019,06,27,16,01,16.90
2019,06,27,16,02,17.00
2019,06,27,16,03,17.10
2019,06,27,16,04,17.10
2019,06,27,16,05,17.20
2019,06,27,16,06,17.20
2019,06,27,16,07,17.20
2019,06,27,16,08,17.20
2019,06,27,16,09,17.20
2019,06,27,16,10,17.20
2019,06,27,16,11,17.20
2019,06,27,16,12,17.20
2019,06,27,16,13,17.20
2019,06,27,16,14,17.20
2019,06,27,16,15,17.20
2019,06,27,16,16,17.20
2019,06,27,16,17,17.20
2019,06,27,16,18,17.20
2019,06,27,16,19,17.20
2019,06,27,16,20,17.20
2019,06,27,16,21,17.20
2019,06,27,16,22,17.30
2019,06,27,16,23,17.30
2019,06,27,16,24,17.30
2019,06,27,16,25,17.30
2019,06,27,16,26,17.30
2019,06,27,16,27,17.30
2019,06,27,16,28,17.20
2019,06,27,16,29,17.20
2019,06,27,16,30,17.20
2019,06,27,16,31,17.20
2019,06,27,16,32,17.20
2019,06,27,16,33,17.20
2019,06,27,16,34,17.20
2019,06,27,16,35,17.20
2019,06,27,16,36,17.10
2019,06,27,16,37,17.10
2019,06,27,16,38,17.10
2019,06,27,16,39,17.10
2019,06,27,16,40,17.10
2019,06,27,16,41,17.10
2019,06,27,16,42,17.20
2019,06,27,16,43,17.20
2019,06,27,16,44,17.20
2019,06,27,16,45,17.20
2019,06,27,16,46,17.20
2019,06,27,16,47,17.10
2019,06,27,16,48,17.10
2019,06,27,16,49,17.10
2019,06,27,16,50,17.10
2019,06,27,16,51,17.10
2019,06,27,16,52,17.00
2019,06,27,16,53,17.00
2019,06,27,16,54,16.90
2019,06,27,16,55,16.80
2019,06,27,16,56,16.80
2019,06,27,16,57,16.80
2019,06,27,16,58,16.80
2019,06,27,16,59,16.70
2019,06,27,17,00,16.70
2019,06,27,17,01,16.60
2019,06,27,17,02,16.60
2019,06,27,17,03,16.60
2019,06,27,17,04,16.50
2019,06,27,17,05,16.50
2019,06,27,17,06,16.50
2019,06,27,17,07,16.50
2019,06,27,17,08,16.40
2019,06,27,17,09,16.40
2019,06,27,17,10,16.40
2019,06,27,17,11,16.40
2019,06,27,17,12,16.40
2019,06,27,17,13,16.40
2019,06,27,17,14,16.30
2019,06,27,17,15,16.20
2019,06,27,17,16,16.10
2019,06,27,17,17,16.10
2019,06,27,17,18,16.10
2019,06,27,17,19,16.10
2019,06,27,17,20,16.00
2019,06,27,17,21,16.00
2019,06,27,17,22,16.00
2019,06,27,17,23,16.00
2019,06,27,17,24,16.00
2019,06,27,17,25,15.90
2019,06,27,17,26,15.90
2019,06,27,17,27,15.90
2019,06,27,17,28,15.90
2019,06,27,17,29,15.90
2019,06,27,17,30,15.90
2019,06,27,17,31,15.80
2019,06,27,17,32,15.80
2019,06,27,17,33,15.80
2019,06,27,17,34,15.80
2019,06,27,17,35,15.80
2019,06,27,17,36,15.80
2019,06,27,17,37,15.80
2019,06,27,17,38,15.80
2019,06,27,17,39,15.80
2019,06,27,17,40,15.70
2019,06,27,17,41,15.70
2019,06,27,17,42,15.70
2019,06,27,17,43,15.70
2019,06,27,17,44,15.70
2019,06,27,17,45,15.70
2019,06,27,17,46,15.70
2019,06,27,17,47,15.70
2019,06,27,17,48,15.70
2019,06,27,17,49,15.70
2019,06,27,17,50,15.70
2019,06,27,17,51,15.70
2019,06,27,17,52,15.70
2019,06,27,17,53,15.70
2019,06,27,17,54,15.70
2019,06,27,17,55,15.70
2019,06,27,17,56,15.70
2019,06,27,17,57,15.80
2019,06,27,17,58,15.80
2019,06,27,17,59,15.80
2019,06,27,18,00,15.80
2019,06,27,18,01,15.80
2019,06,27,18,02,15.80
2019,06,27,18,03,15.80
2019,06,27,18,04,15.80
2019,06,27,18,05,15.80
2019,06,27,18,06,15.80
2019,06,27,18,07,15.80
2019,06,27,18,08,15.80
2019,06,27,18,09,15.80
2019,06,27,18,10,15.80
2019,06,27,18,11,15.80
2019,06,27,18,12,15.80
2019,06,27,18,13,15.80
2019,06,27,18,14,15.80
2019,06,27,18,15,15.80
2019,06,27,18,16,15.80
2019,06,27,18,17,15.80
2019,06,27,18,18,15.70
2019,06,27,18,19,15.70
2019,06,27,18,20,15.70
2019,06,27,18,21,15.70
2019,06,27,18,22,15.70
2019,06,27,18,23,15.60
2019,06,27,18,24,15.60
2019,06,27,18,25,15.60
2019,06,27,18,26,15.50
2019,06,27,18,27,15.50
2019,06,27,18,28,15.50
2019,06,27,18,29,15.50
2019,06,27,18,30,15.60
2019,06,27,18,31,15.60
2019,06,27,18,32,15.60
2019,06,27,18,33,15.60
2019,06,27,18,34,15.60
2019,06,27,18,35,15.60
2019,06,27,18,36,15.60
2019,06,27,18,37,15.60
2019,06,27,18,38,15.60
2019,06,27,18,39,15.50
2019,06,27,18,40,15.60
2019,06,27,18,41,15.60
2019,06,27,18,42,15.60
2019,06,27,18,43,15.60
2019,06,27,18,44,15.60
2019,06,27,18,45,15.60
2019,06,27,18,46,15.60
2019,06,27,18,47,15.60
2019,06,27,18,48,15.60
2019,06,27,18,49,15.70
2019,06,27,18,50,15.70
2019,06,27,18,51,15.70
2019,06,27,18,52,15.70
2019,06,27,18,53,15.70
2019,06,27,18,54,15.70
2019,06,27,18,55,15.70
2019,06,27,18,56,15.70
2019,06,27,18,57,15.80
2019,06,27,18,58,15.80
2019,06,27,18,59,15.80
2019,06,27,19,00,15.70
2019,06,27,19,01,15.80
2019,06,27,19,02,15.80
2019,06,27,19,03,15.80
2019,06,27,19,04,15.80
2019,06,27,19,05,15.80
2019,06,27,19,06,15.90
2019,06,27,19,07,15.90
2019,06,27,19,08,15.90
2019,06,27,19,09,15.90
2019,06,27,19,10,15.90
2019,06,27,19,11,15.80
2019,06,27,19,12,15.80
2019,06,27,19,13,15.80
2019,06,27,19,14,15.80
2019,06,27,19,15,15.80
2019,06,27,19,16,15.80
2019,06,27,19,17,15.70
2019,06,27,19,18,15.70
2019,06,27,19,19,15.70
2019,06,27,19,20,15.70
2019,06,27,19,21,15.70
2019,06,27,19,22,15.70
2019,06,27,19,23,15.70
2019,06,27,19,24,15.70
2019,06,27,19,25,15.70
2019,06,27,19,26,15.70
2019,06,27,19,27,15.70
2019,06,27,19,28,15.70
2019,06,27,19,29,15.70
2019,06,27,19,30,15.60
2019,06,27,19,31,15.60
2019,06,27,19,32,15.60
2019,06,27,19,33,15.60
2019,06,27,19,34,15.60
2019,06,27,19,35,15.60
2019,06,27,19,36,15.60
2019,06,27,19,37,15.60
2019,06,27,19,38,15.60
2019,06,27,19,39,15.60
2019,06,27,19,40,15.60
2019,06,27,19,41,15.60
2019,06,27,19,42,15.60
2019,06,27,19,43,15.60
2019,06,27,19,44,15.60
2019,06,27,19,45,15.60
2019,06,27,19,46,15.60
2019,06,27,19,47,15.60
2019,06,27,19,48,15.60
2019,06,27,19,49,15.60
2019,06,27,19,50,15.60
2019,06,27,19,51,15.60
2019,06,27,19,52,15.60
2019,06,27,19,53,15.60
2019,06,27,19,54,15.60
2019,06,27,19,55,15.50
2019,06,27,19,56,15.50
2019,06,27,19,57,15.60
2019,06,27,19,58,15.60
2019,06,27,19,59,15.60
2019,06,27,20,00,15.60
2019,06,27,20,01,15.60
2019,06,27,20,02,15.60
2019,06,27,20,03,15.60
2019,06,27,20,04,15.60
2019,06,27,20,05,15.60
2019,06,27,20,06,15.50
2019,06,27,20,07,15.50
2019,06,27,20,08,15.40
2019,06,27,20,09,15.40
2019,06,27,20,10,15.40
2019,06,27,20,11,15.40
2019,06,27,20,12,15.40
2019,06,27,20,13,15.40
2019,06,27,20,14,15.40
2019,06,27,20,15,15.40
2019,06,27,20,16,15.40
2019,06,27,20,17,15.40
2019,06,27,20,18,15.40
2019,06,27,20,19,15.30
2019,06,27,20,20,15.30
2019,06,27,20,21,15.30
2019,06,27,20,22,15.30
2019,06,27,20,23,15.30
2019,06,27,20,24,15.30
2019,06,27,20,25,15.30
2019,06,27,20,26,15.30
2019,06,27,20,27,15.30
2019,06,27,20,28,15.30
2019,06,27,20,29,15.20
2019,06,27,20,30,15.20
2019,06,27,20,31,15.20
2019,06,27,20,32,15.20
2019,06,27,20,33,15.20
2019,06,27,20,34,15.10
2019,06,27,20,35,15.10
2019,06,27,20,36,15.10
2019,06,27,20,37,15.10
2019,06,27,20,38,15.10
2019,06,27,20,39,15.10
2019,06,27,20,40,15.10
2019,06,27,20,41,15.10
2019,06,27,20,42,15.10
2019,06,27,20,43,15.00
2019,06,27,20,44,15.00
2019,06,27,20,45,15.00
2019,06,27,20,46,15.00
2019,06,27,20,47,15.00
2019,06,27,20,48,15.00
2019,06,27,20,49,15.00
2019,06,27,20,50,15.00
2019,06,27,20,51,15.00
2019,06,27,20,52,15.00
2019,06,27,20,53,15.00
2019,06,27,20,54,15.00
2019,06,27,20,55,15.00
2019,06,27,20,56,15.00
2019,06,27,20,57,15.00
2019,06,27,20,58,15.00
2019,06,27,20,59,15.00
2019,06,27,21,00,15.00
2019,06,27,21,01,15.00
2019,06,27,21,02,15.00
2019,06,27,21,03,15.00
2019,06,27,21,04,15.00
2019,06,27,21,05,15.00
2019,06,27,21,06,14.90
2019,06,27,21,07,14.80
2019,06,27,21,08,14.80
2019,06,27,21,09,14.80
2019,06,27,21,10,14.80
2019,06,27,21,11,14.80
2019,06,27,21,12,14.70
2019,06,27,21,13,14.70
2019,06,27,21,14,14.70
2019,06,27,21,15,14.70
2019,06,27,21,16,14.70
2019,06,27,21,17,14.70
2019,06,27,21,18,14.70
2019,06,27,21,19,14.60
2019,06,27,21,20,14.60
2019,06,27,21,21,14.60
2019,06,27,21,22,14.60
2019,06,27,21,23,14.60
2019,06,27,21,24,14.60
2019,06,27,21,25,14.60
2019,06,27,21,26,14.60
2019,06,27,21,27,14.60
2019,06,27,21,28,14.60
2019,06,27,21,29,14.60
2019,06,27,21,30,14.60
2019,06,27,21,31,14.50
2019,06,27,21,32,14.50
2019,06,27,21,33,14.50
2019,06,27,21,34,14.50
2019,06,27,21,35,14.50
2019,06,27,21,36,14.40
2019,06,27,21,37,14.40
2019,06,27,21,38,14.40
2019,06,27,21,39,14.30
2019,06,27,21,40,14.30
2019,06,27,21,41,14.30
2019,06,27,21,42,14.30
2019,06,27,21,43,14.20
2019,06,27,21,44,14.20
2019,06,27,21,45,14.20
2019,06,27,21,46,14.20
2019,06,27,21,47,14.20
2019,06,27,21,48,14.10
2019,06,27,21,49,14.10
2019,06,27,21,50,14.10
2019,06,27,21,51,14.10
2019,06,27,21,52,14.10
2019,06,27,21,53,14.10
2019,06,27,21,54,14.10
2019,06,27,21,55,14.10
2019,06,27,21,56,14.00
2019,06,27,21,57,14.00
2019,06,27,21,58,14.00
2019,06,27,21,59,14.00
2019,06,27,22,00,14.00
2019,06,27,22,01,14.00
2019,06,27,22,02,14.00
2019,06,27,22,03,13.90
2019,06,27,22,04,13.90
2019,06,27,22,05,13.90
2019,06,27,22,06,13.90
2019,06,27,22,07,13.90
2019,06,27,22,08,13.90
2019,06,27,22,09,13.80
2019,06,27,22,10,13.70
2019,06,27,22,11,13.70
2019,06,27,22,12,13.70
2019,06,27,22,13,13.60
2019,06,27,22,14,13.60
2019,06,27,22,15,13.60
2019,06,27,22,16,13.60
2019,06,27,22,17,13.50
2019,06,27,22,18,13.50
2019,06,27,22,19,13.40
2019,06,27,22,20,13.40
2019,06,27,22,21,13.40
2019,06,27,22,22,13.40
2019,06,27,22,23,13.40
2019,06,27,22,24,13.30
2019,06,27,22,25,13.40
2019,06,27,22,26,13.40
2019,06,27,22,27,13.40
2019,06,27,22,28,13.40
2019,06,27,22,29,13.40
2019,06,27,22,30,13.40
2019,06,27,22,31,13.40
2019,06,27,22,32,13.40
2019,06,27,22,33,13.40
2019,06,27,22,34,13.40
2019,06,27,22,35,13.40
2019,06,27,22,36,13.40
2019,06,27,22,37,13.40
2019,06,27,22,38,13.40
2019,06,27,22,39,13.40
2019,06,27,22,40,13.30
2019,06,27,22,41,13.30
2019,06,27,22,42,13.30
2019,06,27,22,43,13.30
2019,06,27,22,44,13.30
2019,06,27,22,45,13.30
2019,06,27,22,46,13.20
2019,06,27,22,47,13.20
2019,06,27,22,48,13.20
2019,06,27,22,49,13.20
2019,06,27,22,50,13.10
2019,06,27,22,51,13.10
2019,06,27,22,52,13.10
2019,06,27,22,53,13.10
2019,06,27,22,54,13.10
2019,06,27,22,55,13.10
2019,06,27,22,56,13.10
2019,06,27,22,57,13.10
2019,06,27,22,58,13.10
2019,06,27,22,59,13.00
2019,06,27,23,00,13.00
2019,06,27,23,01,12.90
2019,06,27,23,02,12.90
2019,06,27,23,03,12.80
2019,06,27,23,04,12.80
2019,06,27,23,05,12.80
2019,06,27,23,06,12.80
2019,06,27,23,07,12.70
2019,06,27,23,08,12.70
2019,06,27,23,09,12.70
2019,06,27,23,10,12.70
2019,06,27,23,11,12.60
2019,06,27,23,12,12.60
2019,06,27,23,13,12.60
2019,06,27,23,14,12.50
2019,06,27,23,15,12.40